#timestamp,LO_Frequency,Hit,StdDev 
1456945215.3,286046993.9,N
1456945235.1,286046996.3,N
1456945236.0,286046996.3,N
1456945255.8,286046994.2,N
1456945275.7,286046990.2,Y
1456945295.5,286046990.3,P
1456945315.3,286046993.3,N
1456945335.2,286046995.1,N
1456945355.9,286046997.7,N
1456945375.7,286046996.8,N
1456945395.6,286047000.7,N
1456945415.4,286046995.7,N
1456945435.2,286046993.5,N
1456945455.1,286046991.7,N
1456945456.0,286046991.7,N
1456945475.8,286046990.5,N
1456945495.6,286046987.4,Y
1456945515.5,286046993.9,P
1456945535.3,286046994.4,P
1456945555.1,286046993.6,P
1456945575.9,286046994.8,Y
1456945595.7,286046997.0,P
1456945615.5,286046997.1,N
1456945635.4,286046995.3,P
1456945655.2,286046997.5,N
1456945675.0,286046997.7,N
1456945675.9,286046997.7,N
1456945695.7,286046997.3,N
1456945715.6,286046997.0,N
1456945735.4,286046997.5,N
1456945755.2,286046995.5,Y
1456945775.1,286046997.6,P
1456945776.0,286046997.6,P
1456945795.8,286046993.4,P
1456945815.7,286046994.3,Y
1456945835.5,286046999.5,P
1456945855.3,286046998.4,N
1456945875.1,286047000.5,N
1456945895.9,286047004.0,N
1456945915.7,286047003.6,N
1456945935.5,286047003.7,N
1456945955.4,286047004.5,N
1456945975.2,286047008.4,N
1456945995.0,286047008.6,N
1456945995.9,286047008.6,N
1456946015.8,286047006.3,N
1456946035.6,286047006.2,N
1456946055.4,286047007.5,N
1456946075.3,286047003.7,N
1456946095.1,286047002.8,N
1456946096.0,286047002.8,N
1456946115.8,286047002.0,N
1456946135.7,286047004.3,N
1456946155.5,286047001.3,N
1456946175.3,286046999.7,N
1456946195.1,286046997.1,N
1456946215.9,286046999.2,N
1456946235.7,286046998.2,N
1456946255.5,286046996.6,N
1456946275.4,286046998.9,N
1456946295.2,286046998.5,N
1456946315.0,286047002.1,N
1456946315.9,286047002.1,N
1456946335.8,286047003.4,N
1456946355.6,286047004.2,N
1456946375.4,286047005.4,N
1456946395.3,286047007.1,N
1456946415.1,286047006.6,N
1456946416.0,286047006.6,N
1456946435.8,286047006.6,N
1456946455.7,286047009.1,N
1456946475.5,286047012.0,Y
1456946495.3,286047007.7,P
1456946515.2,286047011.8,P
1456946535.9,286047015.6,P
1456946555.7,286047012.6,N
1456946575.6,286047013.2,Y
1456946595.4,286047007.6,P
1456946615.2,286047005.4,P
1456946635.1,286047004.1,N
1456946636.0,286047004.1,N
1456946655.8,286047001.8,N
1456946675.6,286047005.7,N
1456946695.5,286047007.5,N
1456946715.3,286047006.8,N
1456946735.1,286047006.8,N
1456946755.8,286047004.7,N
1456946775.7,286047007.1,Y
1456946795.5,286046999.4,P
1456946815.4,286046998.1,N
1456946835.2,286046999.4,N
1456946855.0,286047000.2,N
1456946855.9,286047000.2,N
1456946875.7,286047004.2,N
1456946895.6,286047001.9,N
1456946915.4,286047000.3,N
1456946935.2,286047000.1,N
1456946955.1,286047001.8,N
1456946956.0,286047001.8,N
1456946975.8,286047002.9,N
1456946995.6,286047001.9,N
1456947015.5,286047002.8,N
1456947035.3,286047000.6,N
1456947055.1,286047002.6,N
1456947075.9,286047001.0,N
1456947095.7,286047001.7,N
1456947115.5,286047003.9,N
1456947135.4,286047003.5,N
1456947155.2,286047001.7,N
1456947175.0,286047002.5,N
1456947175.9,286047002.5,N
1456947195.8,286047002.8,N
1456947215.6,286046998.4,N
1456947235.4,286046996.9,N
1456947255.2,286046998.9,N
1456947275.1,286046997.3,N
1456947276.0,286046997.3,N
1456947295.8,286046994.9,N
1456947315.6,286046995.7,N
1456947335.5,286047003.9,N
1456947355.3,286047009.0,Y
1456947375.1,286047004.6,P
1456947395.9,286047003.0,N
1456947415.7,286047007.6,P
1456947435.5,286047006.2,N
1456947455.4,286047008.5,Y
1456947475.2,286047003.7,P
1456947495.0,286047005.6,P
1456947495.9,286047005.6,P
1456947515.8,286047005.4,Y
1456947535.6,286047002.4,P
1456947555.5,286047001.6,N
1456947575.3,286047002.8,N
1456947595.1,286047002.4,N
1456947615.9,286047000.1,N
1456947635.7,286046999.8,N
1456947655.5,286046998.4,N
1456947675.3,286046998.2,N
1456947695.2,286046999.2,N
1456947715.0,286046999.1,N
1456947715.9,286046999.1,N
1456947735.7,286047000.3,N
1456947755.6,286046996.7,N
1456947775.4,286046997.2,N
1456947795.2,286046995.4,N
1456947815.1,286046992.2,Y
1456947816.0,286046992.2,P
1456947835.8,286046986.9,P
1456947855.6,286046993.0,N
1456947875.5,286046989.9,N
1456947895.3,286046987.3,N
1456947915.1,286046989.8,N
1456947935.9,286046987.2,Y
1456947955.7,286046999.5,P
1456947975.5,286046997.7,N
1456947995.4,286046997.9,N
1456948015.2,286046995.5,N
1456948035.0,286046996.4,N
1456948035.9,286046996.4,N
1456948055.8,286046994.6,N
1456948075.6,286046994.3,N
1456948095.4,286046994.5,N
1456948115.3,286046992.2,Y
1456948135.1,286046998.4,P
1456948136.0,286046998.4,N
1456948155.8,286047005.8,P
1456948175.7,286047003.8,N
1456948195.5,286047004.3,N
1456948215.3,286047001.8,N
1456948235.1,286047003.0,N
1456948255.9,286047005.9,N
1456948275.7,286047002.7,N
1456948295.5,286047002.8,N
1456948315.4,286047002.4,N
1456948335.2,286047002.5,N
1456948355.0,286047004.3,N
1456948355.9,286047004.3,N
1456948375.8,286047002.5,N
1456948395.6,286047000.9,N
1456948415.4,286047004.3,N
1456948435.3,286047004.4,N
1456948455.1,286046998.1,N
1456948456.0,286046998.1,N
1456948475.8,286046999.5,N
1456948495.7,286046999.9,N
1456948515.5,286046998.4,N
1456948535.3,286046997.8,N
1456948555.1,286046996.0,N
1456948575.9,286046995.2,N
1456948595.7,286046995.1,N
1456948615.5,286046997.5,N
1456948635.4,286047000.7,N
1456948655.2,286046999.1,N
1456948675.0,286046996.9,N
1456948675.9,286046996.9,N
1456948695.8,286047000.5,N
1456948715.6,286047000.1,N
1456948735.4,286046997.2,N
1456948755.3,286046995.4,N
1456948775.1,286046996.9,N
1456948776.0,286046996.9,N
1456948795.8,286046998.2,N
